Weather Roundup
Issued by NWS Chicago, IL

Home | Current Version | Previous Version | Text Only | Print | Product List | Glossary Off
Versions: 1 2 3 4 5 6 7 8 9 10 11 12 13 14 15 16 17 18 19 20 21 22 23 24 25 26 27 28 29 30 31 32 33 34 35 36 37 38 39 40 41 42 43 44 45 46 47 48 49 50

000
NZUS59 KLOT 230006
HRRLOT

CHICAGO AREA WEATHER ROUNDUP
NATIONAL WEATHER SERVICE CHICAGO/ROMEOVILLE IL
700 PM CDT WED OCT 22 2014

NOTE: "FAIR" INDICATES FEW OR NO CLOUDS BELOW 12,000 FEET WITH NO
SIGNIFICANT WEATHER AND/OR OBSTRUCTIONS TO VISIBILITY.

* THESE STATIONS ARE NOT UNDER NWS QUALITY CONTROL. THEY ALSO MAY NOT
  REPORT WEATHER SUCH AS PRECIPITATION OR FOG.

ILZ005-006-012>014-019>023-230100-
NORTHEAST ILLINOIS

CITY           SKY/WX    TMP DP  RH WIND       PRES   REMARKS
OHARE          CLEAR     46  37  71 E7        30.27F
6HR MIN TEMP:  46; 6HR MAX TEMP:  56;

MIDWAY         CLEAR     49  38  65 E7        30.28F
6HR MIN TEMP:  49; 6HR MAX TEMP:  56;

AURORA         CLEAR     46  35  65 SE5       30.25F
6HR MIN TEMP:  46; 6HR MAX TEMP:  59;

LANSING*       CLEAR     45  37  72 E3        30.28F
JOLIET*        CLEAR     47  36  66 E8        30.26S
WAUKEGAN       CLEAR     43  37  79 E5        30.27F
6HR MIN TEMP:  43; 6HR MAX TEMP:  52;

DUPAGE AIRPORT CLEAR     48  37  65 E8        30.25S
6HR MIN TEMP:  48; 6HR MAX TEMP:  60;

WHEELING       CLEAR     47  38  71 E3        30.29F
6HR MIN TEMP:  47; 6HR MAX TEMP:  56;

KANKAKEE*      CLEAR     46  37  71 NE8       30.27S
MORRIS*        CLEAR     49  38  65 E3        30.24S
LEWIS AIRPORT* CLEAR     46  36  67 E9        30.26S
NORTHERLY IS     N/A     48  36  63 NE5         N/A
$$

WIZ051-052-058>065-066-070>072-230100-
SOUTHEAST WISCONSIN

CITY           SKY/WX    TMP DP  RH WIND       PRES   REMARKS
MILWAUKEE      PTCLDY    44  37  76 SE6       30.27F
6HR MIN TEMP:  44; 6HR MAX TEMP:  52;

KENOSHA*       CLEAR     43  38  82 E7        30.27F
RACINE*        CLEAR     44  37  76 SE7       30.29F
BURLINGTON     CLEAR     43  38  80 E6        30.26S
WAUKESHA       CLEAR     45  37  76 SE7       30.27S
WEST BEND      CLEAR     41  36  81 E3        30.27S
$$

INZ001>003-010>013-019-020-230100-
NORTHWEST INDIANA

CITY           SKY/WX    TMP DP  RH WIND       PRES   REMARKS
GARY*          CLEAR     45  36  70 E5        30.28F
MICHIGAN CITY* NOT AVBL
RENSSELAER*    NOT AVBL
VALPARAISO     CLEAR     44  37  76 NE3       30.28S
$$

LMZ740>746-230100-
SOUTHERN LAKE MICHIGAN

STATION/POSITION TIME  SKY/WX   TEMP WIND        PRES    VSBY
                                AIR  DIR/SP/G
                 (UTC)          (F)  (DEG/KT/KT) (MB)    (MI)
HARRISON CRIB    2300            48   80/  8/  9   N/A
BURNHAM HARBOR   0000            48   80/  7/  7   N/A
CALUMET HARBOR   0000            49   50/  6/  7 1024.1S
BURNS HARBOR     NOT AVBL
MICHIGAN CITY    0000            49   30/  7/  9   N/A
$$

ABBREVIATIONS USED IN REMARKS
   TC - TEMPERATURE IN CELSIUS
  WCI - WIND CHILL INDEX
   HX - HEAT INDEX
  VSB - VISIBILITY
$$



USA.gov is the U.S. government's official web portal to all federal, state and local government web resources and services.